Location: Waldport
(44.4270°N, 124.0680°W)
Time: 20:18:18
(UTC-08:00)

Meteor 1-26 Rocket - Visible Passes

Search period start: 03 March 2015 00:00
Search period end: 13 March 2015 01:00
Orbit: 824 x 912 km, 81.3° (Epoch: 02 March)

Date Brightness Start Highest point End Pass type
(mag) Time Alt. Az. Time Alt. Az. Time Alt. Az.
03 Mar 5.9 03:36:32 26° N 03:36:32 26° N 03:38:56 10° N visible
03 Mar 6.3 05:18:54 10° NW 05:18:54 10° NW 05:19:18 10° NW visible
04 Mar 6.0 03:29:51 24° N 03:29:51 24° N 03:32:05 10° N visible
04 Mar 6.3 05:12:14 10° NW 05:12:14 10° NW 05:12:21 10° NW visible
05 Mar 6.1 03:23:10 23° N 03:23:10 23° N 03:25:15 10° N visible
06 Mar 6.1 03:16:27 22° N 03:16:27 22° N 03:18:25 10° N visible
07 Mar 6.2 03:09:43 21° N 03:09:43 21° N 03:11:34 10° N visible
08 Mar 6.3 04:02:59 20° N 04:02:59 20° N 04:04:44 10° N visible
09 Mar 6.3 03:56:13 20° N 03:56:13 20° N 03:57:54 10° N visible
10 Mar 6.4 03:49:27 19° N 03:49:27 19° N 03:51:03 10° N visible
11 Mar 6.4 03:42:40 19° N 03:42:40 19° N 03:44:13 10° N visible
12 Mar 6.5 03:35:53 18° N 03:35:53 18° N 03:37:22 10° N visible
